Molokai, HI

5:43 PM HST on November 17, 2017 (GMT -1000)
Molokai

Weather History for PHMK - March, 2014

Change the Weather History Date:

Friday, March 14, 2014

  Actual Average Record
Temperature  
Mean Temperature 74 °F -  
Max Temperature 80 °F 79 °F 86 °F (1977)
Min Temperature 69 °F 64 °F 53 °F (2005)
Cooling Degree Days 10    
Growing Degree Days 24 (Base 50)    
Moisture  
Dew Point 69 °F    
Average Humidity 88    
Maximum Humidity 100    
Minimum Humidity 69    
Precipitation  
Precipitation 0.09 in - - ()
Sea Level Pressure  
Sea Level Pressure 30.08 in    
Wind  
Wind Speed 9 mph (NNE)    
Max Wind Speed 15 mph    
Max Gust Speed 24 mph    
Visibility 10 miles    
Events Rain    
Averages and records for this station are not official NWS values.
T = Trace of Precipitation, MM = Missing Value Source: NWS Daily Summary

Daily Weather History Graph

Daily Weather History Graph

Search for Another Location

Airport or City:

Trip Planner

Search our weather history database for the weather conditions in past years. The results will help you decide how hot, cold, wet, or windy it might be!

Date:

Astronomy

Mar. 14, 2014 Rise Set
Actual Time 6:37 AM HST 6:37 PM HST
Civil Twilight 6:15 AM HST 6:59 PM HST
Nautical Twilight 5:49 AM HST 7:25 PM HST
Astronomical Twilight 5:24 AM HST 7:51 PM HST
Moon 5:17 PM HST (3/14) 5:13 AM HST (3/14)
Length of Visible Light 12h 44m
Length of Day
11h 59m
Waxing Gibbous, 97% of the Moon is Illuminated
Mar 14
Waxing Gibbous
Mar 16
Full
Mar 23
Last Quarter
Mar 30
New
Apr 6
First Quarter

Hourly Weather History & Observations

Time (HST) Temp. Heat Index Dew Point Humidity Pressure Visibility Wind Dir Wind Speed Gust Speed Precip Events Conditions
12:54 AM 70.0 °F - 69.1 °F 97% 30.12 in 10.0 mi NE 6.9 mph - 0.00 in   Scattered Clouds
1:14 AM 69.8 °F - 69.8 °F 100% 30.11 in 10.0 mi NNE 5.8 mph - N/A   Mostly Cloudy
1:54 AM 70.0 °F - 68.0 °F 93% 30.10 in 10.0 mi NE 5.8 mph - N/A   Scattered Clouds
2:54 AM 70.0 °F - 68.0 °F 93% 30.09 in 10.0 mi North 5.8 mph - N/A   Clear
3:54 AM 70.0 °F - 70.0 °F 100% 30.08 in 3.0 mi ENE 6.9 mph - 0.01 in Rain Heavy Rain
4:54 AM 69.1 °F - 69.1 °F 100% 30.08 in 10.0 mi North 5.8 mph - 0.02 in Rain Light Rain
5:54 AM 70.0 °F - 69.1 °F 97% 30.08 in 10.0 mi NNE 5.8 mph - N/A   Scattered Clouds
6:54 AM 70.0 °F - 69.1 °F 97% 30.09 in 10.0 mi NE 6.9 mph - N/A   Clear
7:54 AM 73.0 °F - 69.1 °F 87% 30.10 in 10.0 mi NE 8.1 mph - N/A   Partly Cloudy
8:54 AM 75.0 °F - 68.0 °F 79% 30.12 in 10.0 mi NE 8.1 mph 16.1 mph N/A   Partly Cloudy
9:54 AM 75.9 °F - 69.1 °F 79% 30.12 in 10.0 mi NE 10.4 mph - N/A   Partly Cloudy
10:54 AM 78.1 °F - 68.0 °F 71% 30.11 in 10.0 mi NNE 12.7 mph - N/A   Clear
11:54 AM 80.1 °F 82.9 °F 69.1 °F 69% 30.09 in 10.0 mi NE 9.2 mph 16.1 mph N/A   Clear
12:54 PM 78.1 °F - 70.0 °F 76% 30.07 in 10.0 mi NNE 11.5 mph 19.6 mph N/A   Partly Cloudy
1:54 PM 77.0 °F - 71.1 °F 82% 30.06 in 10.0 mi NNE 12.7 mph 24.2 mph N/A   Clear
2:54 PM 78.1 °F - 70.0 °F 76% 30.04 in 10.0 mi NNE 11.5 mph 21.9 mph N/A   Partly Cloudy
3:54 PM 77.0 °F - 70.0 °F 79% 30.03 in 10.0 mi North 13.8 mph 20.7 mph N/A   Clear
4:54 PM 75.9 °F - 69.1 °F 79% 30.04 in 10.0 mi NNE 11.5 mph 24.2 mph N/A   Clear
5:54 PM 75.0 °F - 68.0 °F 79% 30.04 in 10.0 mi NNE 10.4 mph 18.4 mph N/A   Clear
6:54 PM 72.0 °F - 69.1 °F 91% 30.06 in 10.0 mi NNE 10.4 mph - N/A   Clear
7:54 PM 72.0 °F - 68.0 °F 87% 30.07 in 10.0 mi NNE 10.4 mph 20.7 mph N/A   Clear
8:54 PM 72.0 °F - 68.0 °F 87% 30.08 in 10.0 mi NE 9.2 mph 18.4 mph N/A   Overcast
9:54 PM 71.1 °F - 69.1 °F 93% 30.09 in 10.0 mi NNE 6.9 mph - N/A   Partly Cloudy
10:54 PM 72.0 °F - 70.0 °F 93% 30.09 in 10.0 mi North 13.8 mph 20.7 mph N/A   Scattered Clouds
11:07 PM 71.6 °F - 71.6 °F 100% 30.09 in 10.0 mi North 15.0 mph 21.9 mph N/A   Mostly Cloudy
11:30 PM 69.8 °F - 69.8 °F 100% 30.09 in 3.0 mi North 12.7 mph 19.6 mph 0.06 in Rain Rain
11:54 PM 70.0 °F - 70.0 °F 100% 30.09 in 10.0 mi North 15.0 mph 23.0 mph 0.06 in   Overcast